WW0K Weather Reports


time (UTC)temp
C
wind
direction
speed
KPH
gust
KPH
rain 1hr
cm
rain 24hr
cm
rain mn
cm
humidity
%
barometer
mb
20260505170519 15 305 4.8 9.7 0.00 0.00 0.00 31
20260505165525 16 264 6.4 14.5 0.00 0.00 0.00 30
20260505164531 16 331 4.8 8.0 0.00 0.00 0.00 30
20260505163519 16 4 6.4 11.3 0.00 0.00 0.00 30
20260505162525 16 287 4.8 12.9 0.00 0.00 0.00 33
20260505161531 15 268 6.4 11.3 0.00 0.00 0.00 33
20260505160536 15 281 4.8 6.4 0.00 0.00 0.00 34
20260505152524 15 301 6.4 9.7 0.00 0.00 0.00 36
20260505151530 14 15 4.8 6.4 0.00 0.00 0.00 36
20260505150536 14 301 3.2 8.0 0.00 0.00 0.00 38
20260505140536 14 55 1.6 4.8 0.00 0.00 0.00 37
20260505124530 7 36 0.0 3.2 0.00 0.00 0.00 65
20260505123536 6 0.0 0.0 0.00 0.00 0.00 75
20260505122524 5 0.0 0.0 0.00 0.00 0.00 80
20260505121530 5 0.0 0.0 0.00 0.00 0.00 79
20260505120536 4 0.0 0.0 0.00 0.00 0.00 75
20260505115524 4 0.0 0.0 0.00 0.00 0.00 74
20260505114530 4 0.0 0.0 0.00 0.00 0.00 74
20260505113536 4 0.0 0.0 0.00 0.00 0.00 73
20260505112524 4 0.0 0.0 0.00 0.00 0.00 71
20260505111530 5 0.0 0.0 0.00 0.00 0.00 71
20260505110536 5 0.0 0.0 0.00 0.00 0.00 69
20260505101530 5 0.0 0.0 0.00 0.00 0.00 67
20260505100556 5 0.0 0.0 0.00 0.00 0.00 67
20260505095524 5 0.0 0.0 0.00 0.00 0.00 64
20260505094530 6 0.0 0.0 0.00 0.00 0.00 65
20260505093536 6 0.0 0.0 0.00 0.00 0.00 64
20260505092524 6 0.0 0.0 0.00 0.00 0.00 60
20260505091530 6 0.0 0.0 0.00 0.00 0.00 60
20260505090535 6 0.0 0.0 0.00 0.00 0.00 58
20260505085524 7 0.0 0.0 0.00 0.00 0.00 57
20260505084530 7 0.0 0.0 0.00 0.00 0.00 55
20260505083536 7 68 0.0 1.6 0.00 0.00 0.00 53
20260505082605 8 0.0 0.0 0.00 0.00 0.00 52
20260505081550 8 4 1.6 4.8 0.00 0.00 0.00 51
20260505080536 8 25 1.6 4.8 0.00 0.00 0.00 50
20260505075524 9 0.0 0.0 0.00 0.00 0.00 50
20260505074610 9 354 1.6 3.2 0.00 0.00 0.00 49
20260505073536 9 15 1.6 3.2 0.00 0.00 0.00 47
20260505072524 10 6 3.2 6.4 0.00 0.00 0.00 47
20260505071550 10 9 1.6 4.8 0.00 0.00 0.00 46
20260505070535 10 348 1.6 4.8 0.00 0.00 0.00 47
20260505065524 10 359 3.2 6.4 0.00 0.00 0.00 46
20260505064550 10 338 1.6 6.4 0.00 0.00 0.00 46
20260505063537 10 352 1.6 4.8 0.00 0.00 0.00 45
20260505062543 10 349 4.8 9.7 0.00 0.00 0.00 45
20260505061551 10 28 4.8 8.0 0.00 0.00 0.00 46
20260505060535 10 15 3.2 4.8 0.00 0.00 0.00 48
20260505055524 10 25 1.6 6.4 0.00 0.00 0.00 47
20260505054529 10 4 4.8 8.0 0.00 0.00 0.00 48
20260505053535 10 29 3.2 4.8 0.00 0.00 0.00 50
20260505052524 10 335 3.2 9.7 0.00 0.00 0.00 51
20260505051529 11 2 4.8 9.7 0.00 0.00 0.00 51
20260505050555 11 28 4.8 11.3 0.00 0.00 0.00 44
20260505041528 11 360 6.4 12.9 0.00 0.00 0.00 46
20260505040535 11 311 6.4 14.5 0.00 0.00 0.00 47
20260505035523 11 335 8.0 12.9 0.00 0.00 0.00 48
20260505034529 11 349 8.0 11.3 0.00 0.00 0.00 51
20260505033534 12 10 9.7 17.7 0.00 0.00 0.00 52
20260505032542 13 12 11.3 19.3 0.00 0.00 0.00 46
20260505031529 13 340 9.7 19.3 0.00 0.00 0.00 43
20260505030534 13 16 6.4 11.3 0.00 0.00 0.00 43
20260505025540 13 297 6.4 9.7 0.00 0.00 0.00 43
20260505024528 13 325 6.4 14.5 0.00 0.00 0.00 43
20260505023534 13 274 4.8 9.7 0.00 0.00 0.00 43
20260505022522 13 19 6.4 9.7 0.00 0.00 0.00 43
20260505021528 13 34 6.4 9.7 0.00 0.00 0.00 44
20260505020534 13 26 6.4 9.7 0.00 0.00 0.00 47
20260505015522 14 264 3.2 6.4 0.00 0.00 0.00 45
20260505014527 15 298 4.8 8.0 0.00 0.00 0.00 41
20260505013534 15 303 6.4 11.3 0.00 0.00 0.00 39
20260505012522 15 338 4.8 8.0 0.00 0.00 0.00 37
20260505011528 16 9 8.0 12.9 0.00 0.00 0.00 37
20260505010534 16 352 8.0 14.5 0.00 0.00 0.00 38
20260505005522 16 272 9.7 17.7 0.00 0.00 0.00 37
20260505004527 17 13 8.0 11.3 0.00 0.00 0.00 34
20260505003533 18 11 6.4 11.3 0.00 0.00 0.00 33
20260505002522 18 347 4.8 11.3 0.00 0.00 0.00 31
20260505001527 19 4 6.4 12.9 0.00 0.00 0.00 30
20260505000654 21 316 8.0 16.1 0.00 0.00 0.00 28
20260504235521 22 34 8.0 14.5 0.00 0.00 0.00 26
20260504234527 22 295 8.0 11.3 0.00 0.00 0.00 26
20260504233534 23 332 9.7 19.3 0.00 0.00 0.00 26
20260504232521 23 281 8.0 14.5 0.00 0.00 0.00 26
20260504231527 23 341 8.0 19.3 0.00 0.00 0.00 27
20260504230534 24 302 9.7 17.7 0.00 0.00 0.00 26
20260504225521 24 357 9.7 19.3 0.00 0.00 0.00 26
20260504224528 25 36 8.0 11.3 0.00 0.00 0.00 26
20260504223613 25 16 4.8 8.0 0.00 0.00 0.00 27
20260504222522 25 335 4.8 11.3 0.00 0.00 0.00 26
20260504221527 25 358 8.0 17.7 0.00 0.00 0.00 26
20260504220532 26 358 6.4 8.0 0.00 0.00 0.00 26
20260504215520 26 304 8.0 14.5 0.00 0.00 0.00 26
20260504214606 26 18 6.4 12.9 0.00 0.00 0.00 26
20260504213532 26 323 8.0 16.1 0.00 0.00 0.00 26
20260504212520 27 332 8.0 9.7 0.00 0.00 0.00 25
20260504211544 27 347 6.4 11.3 0.00 0.00 0.00 26
20260504210532 27 311 8.0 14.5 0.00 0.00 0.00 26
20260504205519 27 2 6.4 14.5 0.00 0.00 0.00 27
20260504204526 27 298 8.0 14.5 0.00 0.00 0.00 28
20260504203612 28 298 6.4 9.7 0.00 0.00 0.00 30
20260504202540 28 325 6.4 11.3 0.00 0.00 0.00 29
20260504201525 28 318 8.0 14.5 0.00 0.00 0.00 30
20260504200531 28 239 6.4 12.9 0.00 0.00 0.00 31
20260504195519 28 276 6.4 11.3 0.00 0.00 0.00 30
20260504194525 28 212 6.4 11.3 0.00 0.00 0.00 30
20260504193531 30 260 9.7 14.5 0.00 0.00 0.00 27
20260504192536 30 278 8.0 16.1 0.00 0.00 0.00 27
20260504191524 27 282 6.4 9.7 0.00 0.00 0.00 28
20260504190530 28 328 6.4 9.7 0.00 0.00 0.00 27
20260504185536 29 299 8.0 11.3 0.00 0.00 0.00 26
20260504184524 29 211 8.0 11.3 0.00 0.00 0.00 26
20260504183530 29 266 9.7 16.1 0.00 0.00 0.00 27
20260504182536 29 258 8.0 14.5 0.00 0.00 0.00 26
20260504181524 29 269 8.0 12.9 0.00 0.00 0.00 28
20260504180530 28 243 9.7 16.1 0.00 0.00 0.00 28
20260504175536 28 273 8.0 12.9 0.00 0.00 0.00 28
20260504174523 28 263 9.7 16.1 0.00 0.00 0.00 29
20260504173529 28 228 9.7 16.1 0.00 0.00 0.00 27
20260504172536 28 296 11.3 19.3 0.00 0.00 0.00 27
20260504171523 28 307 9.7 12.9 0.00 0.00 0.00 28